This is the latest recevied weather packets stored in our database for station/object K1RFS. If no packets are shown the sender has not sent any weather packets the latest 10 day(s).
| Time | Temp. | Humidity | Pressure | Rain* | Wind** | Luminosity | Snow |
|---|---|---|---|---|---|---|---|
| 1788111976 | 23.89° C | 52% | 1003.9 hPa | 0 mm | - | 42 W/m² | - |
| 1788111672 | 23.33° C | 55% | 1004 hPa | 0 mm | - | 42 W/m² | - |
| 1788111367 | 23.33° C | 55% | 1004.1 hPa | 0 mm | - | 41 W/m² | - |
| 1788111061 | 23.33° C | 53% | 1004 hPa | 0 mm | - | 41 W/m² | - |
| 1788110759 | 23.33° C | 52% | 1003.7 hPa | 0 mm | - | 40 W/m² | - |
| 1788110454 | 23.33° C | 52% | 1003.9 hPa | 0 mm | - | 40 W/m² | - |
| 1788110149 | 23.33° C | 53% | 1003.7 hPa | 0 mm | - | 40 W/m² | - |
| 1788109844 | 23.33° C | 52% | 1003.9 hPa | 0 mm | - | 40 W/m² | - |
| 1788109544 | 23.33° C | 55% | 1003.8 hPa | 0 mm | - | 40 W/m² | - |
| 1788109243 | 22.78° C | 55% | 1003.8 hPa | 0 mm | - | 40 W/m² | - |
| 1788108939 | 22.78° C | 54% | 1003.7 hPa | 0 mm | - | 40 W/m² | - |
| 1788108635 | 22.22° C | 56% | 1003.7 hPa | 0 mm | - | 43 W/m² | - |
| 1788108330 | 22.22° C | 57% | 1003.9 hPa | 0 mm | - | 48 W/m² | - |
| 1788108026 | 21.67° C | 58% | 1003.7 hPa | 0 mm | - | 42 W/m² | - |
| 1788107723 | 21.11° C | 60% | 1003.6 hPa | 0 mm | - | 55 W/m² | - |
| 1788107422 | 21.11° C | 62% | 1003.7 hPa | 0 mm | - | 63 W/m² | - |
| 1788107119 | 20.56° C | 64% | 1003.4 hPa | 0 mm | - | 60 W/m² | - |
| 1788106819 | 20.56° C | 65% | 1003.6 hPa | 0 mm | - | 58 W/m² | - |
| 1788106522 | 20° C | 65% | 1003.6 hPa | 0 mm | - | 76 W/m² | - |
| 1788106208 | 20° C | 66% | 1003.7 hPa | 0 mm | - | 79 W/m² | - |
| 1788105904 | 19.44° C | 69% | 1003.6 hPa | 0 mm | - | 76 W/m² | - |
| 1788105599 | 19.44° C | 70% | 1003.4 hPa | 0 mm | - | 80 W/m² | - |
| 1788105295 | 19.44° C | 71% | 1003.4 hPa | 0 mm | - | 80 W/m² | - |
| 1788104990 | 19.44° C | 71% | 1003.4 hPa | 0 mm | - | 80 W/m² | - |
| 1788104686 | 18.89° C | 71% | 1003.6 hPa | 0 mm | - | 83 W/m² | - |
* Rain latest hour (hover to see other rain measurements)
** Current wind speed in m/s (hover to see current wind gust speed)